| time (UTC) | temp C | wind direction | speed KPH | gust KPH | rain 1hr cm | rain 24hr cm | rain mn cm | humidity % | barometer mb |
| 20260509171454 | 16 | 53 | 3.2 | 4.8 | 0.00 | 0.00 | 0.00 | 65 | 1005.9 |
| 20260509170950 | 16 | 7 | 1.6 | 3.2 | 0.00 | 0.00 | 0.00 | 67 | 1006.1 |
| 20260509170446 | 16 | 160 | 0.0 | 0.0 | 0.00 | 0.00 | 0.00 | 67 | 1006.2 |
| 20260509165942 | 16 | 15 | 0.0 | 1.6 | 0.00 | 0.00 | 0.00 | 65 | 1006.1 |
| 20260509165441 | 16 | 344 | 0.0 | 0.0 | 0.00 | 0.00 | 0.00 | 65 | 1006.3 |
| 20260509164937 | 16 | 66 | 1.6 | 3.2 | 0.00 | 0.00 | 0.00 | 64 | 1006.2 |
| 20260509164433 | 16 | 14 | 0.0 | 0.0 | 0.00 | 0.00 | 0.00 | 65 | 1006.2 |
| 20260509163929 | 16 | 348 | 3.2 | 3.2 | 0.00 | 0.00 | 0.00 | 68 | 1006.3 |
| 20260509163427 | 16 | 28 | 0.0 | 1.6 | 0.00 | 0.00 | 0.00 | 67 | 1006.5 |
| 20260509162925 | 15 | 20 | 0.0 | 0.0 | 0.00 | 0.00 | 0.00 | 67 | 1006.6 |
| 20260509162425 | 15 | 39 | 3.2 | 3.2 | 0.00 | 0.00 | 0.00 | 67 | 1006.5 |
| 20260509161920 | 16 | 14 | 1.6 | 1.6 | 0.00 | 0.00 | 0.00 | 66 | 1006.6 |
| 20260509161416 | 15 | 354 | 1.6 | 1.6 | 0.00 | 0.00 | 0.00 | 71 | 1006.7 |
| 20260509160912 | 15 | 351 | 0.0 | 0.0 | 0.00 | 0.00 | 0.00 | 73 | 1006.4 |
| 20260509160408 | 15 | 353 | 0.0 | 0.0 | 0.00 | 0.00 | 0.00 | 70 | 1006.6 |
| 20260509155904 | 15 | 337 | 3.2 | 3.2 | 0.00 | 0.00 | 0.00 | 70 | 1006.5 |
| 20260509155401 | 15 | 344 | 1.6 | 1.6 | 0.00 | 0.00 | 0.00 | 71 | 1006.5 |
| 20260509154857 | 15 | 345 | 0.0 | 0.0 | 0.00 | 0.00 | 0.00 | 69 | 1006.6 |
| 20260509154354 | 15 | 8 | 1.6 | 3.2 | 0.00 | 0.00 | 0.00 | 72 | 1006.5 |
| 20260509153850 | 15 | 355 | 0.0 | 0.0 | 0.00 | 0.00 | 0.00 | 72 | 1006.7 |
| 20260509153348 | 15 | 350 | 1.6 | 1.6 | 0.00 | 0.00 | 0.00 | 71 | 1006.8 |
| 20260509152844 | 15 | 354 | 0.0 | 0.0 | 0.00 | 0.00 | 0.00 | 74 | 1006.5 |
| 20260509152340 | 15 | 357 | 1.6 | 1.6 | 0.00 | 0.00 | 0.00 | 71 | 1006.7 |
| 20260509151838 | 16 | 356 | 1.6 | 3.2 | 0.00 | 0.00 | 0.00 | 70 | 1006.4 |
| 20260509151333 | 16 | 76 | 3.2 | 3.2 | 0.00 | 0.00 | 0.00 | 69 | 1006.4 |
| 20260509150832 | 15 | 353 | 1.6 | 3.2 | 0.00 | 0.00 | 0.00 | 71 | 1006.6 |
| 20260509150330 | 15 | 350 | 1.6 | 1.6 | 0.00 | 0.00 | 0.00 | 72 | 1006.7 |
| 20260509145827 | 15 | 41 | 1.6 | 1.6 | 0.00 | 0.00 | 0.00 | 74 | 1006.7 |
| 20260509145321 | 15 | 321 | 1.6 | 1.6 | 0.00 | 0.00 | 0.00 | 72 | 1006.7 |
| 20260509144818 | 15 | 17 | 3.2 | 3.2 | 0.00 | 0.00 | 0.00 | 76 | 1006.5 |
| 20260509144315 | 15 | 318 | 3.2 | 3.2 | 0.00 | 0.00 | 0.00 | 75 | 1006.5 |
| 20260509143812 | 15 | 356 | 0.0 | 0.0 | 0.00 | 0.00 | 0.00 | 76 | 1006.6 |
| 20260509143310 | 15 | 19 | 0.0 | 0.0 | 0.00 | 0.00 | 0.00 | 74 | 1006.6 |
| 20260509142806 | 15 | 359 | 0.0 | 0.0 | 0.00 | 0.00 | 0.00 | 76 | 1006.7 |
| 20260509142306 | 14 | 5 | 0.0 | 0.0 | 0.00 | 0.00 | 0.00 | 74 | 1006.7 |
| 20260509141757 | 13 | 40 | 1.6 | 1.6 | 0.00 | 0.00 | 0.00 | 76 | 1006.7 |
| 20260509141255 | 13 | 18 | 1.6 | 1.6 | 0.00 | 0.00 | 0.00 | 76 | 1006.9 |
| 20260509140751 | 13 | 316 | 1.6 | 1.6 | 0.00 | 0.00 | 0.00 | 77 | 1006.9 |
| 20260509140248 | 13 | 6 | 0.0 | 0.0 | 0.00 | 0.00 | 0.00 | 79 | 1007.0 |
| 20260509135746 | 13 | 347 | 1.6 | 3.2 | 0.00 | 0.00 | 0.00 | 78 | 1006.9 |
| 20260509135244 | 13 | 357 | 0.0 | 0.0 | 0.00 | 0.00 | 0.00 | 78 | 1006.8 |
| 20260509134740 | 13 | 352 | 0.0 | 0.0 | 0.00 | 0.00 | 0.00 | 79 | 1006.7 |
| 20260509134238 | 12 | 352 | 0.0 | 0.0 | 0.00 | 0.00 | 0.00 | 82 | 1007.0 |
| 20260509133735 | 12 | 352 | 0.0 | 0.0 | 0.00 | 0.00 | 0.00 | 84 | 1007.0 |
| 20260509133231 | 12 | 354 | 0.0 | 0.0 | 0.00 | 0.00 | 0.00 | 82 | 1006.7 |
| 20260509132730 | 12 | 354 | 0.0 | 0.0 | 0.00 | 0.00 | 0.00 | 82 | 1006.7 |
| 20260509132228 | 12 | 2 | 0.0 | 0.0 | 0.00 | 0.00 | 0.00 | 82 | 1006.4 |
| 20260509131725 | 12 | 352 | 0.0 | 0.0 | 0.00 | 0.00 | 0.00 | 84 | 1006.7 |
| 20260509131221 | 11 | 352 | 0.0 | 0.0 | 0.00 | 0.00 | 0.00 | 89 | 1006.7 |
| 20260509130717 | 11 | 0 | 0.0 | 0.0 | 0.00 | 0.00 | 0.00 | 90 | 1006.6 |
| 20260509130213 | 11 | 31 | 1.6 | 1.6 | 0.00 | 0.00 | 0.00 | 87 | 1006.5 |
| 20260509125710 | 11 | 349 | 0.0 | 0.0 | 0.00 | 0.00 | 0.00 | 89 | 1006.3 |
| 20260509125207 | 11 | 18 | 0.0 | 0.0 | 0.00 | 0.00 | 0.00 | 90 | 1006.6 |
| 20260509124703 | 11 | 2 | 0.0 | 0.0 | 0.00 | 0.00 | 0.00 | 89 | 1006.9 |
| 20260509124200 | 11 | 4 | 0.0 | 0.0 | 0.00 | 0.00 | 0.00 | 88 | 1007.0 |
| 20260509123659 | 12 | 352 | 0.0 | 0.0 | 0.00 | 0.00 | 0.00 | 87 | 1007.0 |
| 20260509123155 | 11 | 331 | 1.6 | 1.6 | 0.00 | 0.00 | 0.00 | 87 | 1007.1 |
| 20260509122650 | 11 | 8 | 0.0 | 0.0 | 0.00 | 0.00 | 0.00 | 85 | 1006.8 |
| 20260509122142 | 11 | 2 | 0.0 | 0.0 | 0.00 | 0.00 | 0.00 | 85 | 1006.9 |
| 20260509121638 | 11 | 3 | 0.0 | 0.0 | 0.00 | 0.00 | 0.00 | 86 | 1006.9 |
| 20260509121137 | 11 | 2 | 0.0 | 0.0 | 0.00 | 0.00 | 0.00 | 85 | 1006.9 |
| 20260509120634 | 11 | 1 | 0.0 | 0.0 | 0.00 | 0.00 | 0.00 | 88 | 1007.1 |
| 20260509120132 | 11 | 2 | 0.0 | 0.0 | 0.00 | 0.00 | 0.00 | 88 | 1007.1 |
| 20260509115629 | 11 | 4 | 0.0 | 0.0 | 0.00 | 0.00 | 0.00 | 89 | 1006.9 |
| 20260509115127 | 11 | 4 | 0.0 | 0.0 | 0.00 | 0.00 | 0.00 | 89 | 1006.9 |
| 20260509114625 | 10 | 4 | 0.0 | 0.0 | 0.00 | 0.00 | 0.00 | 89 | 1006.5 |
| 20260509114124 | 10 | 4 | 0.0 | 0.0 | 0.00 | 0.00 | 0.00 | 89 | 1006.9 |
| 20260509113621 | 10 | 4 | 0.0 | 0.0 | 0.00 | 0.00 | 0.00 | 89 | 1006.7 |
| 20260509113119 | 10 | 5 | 0.0 | 0.0 | 0.00 | 0.00 | 0.00 | 88 | 1006.5 |
| 20260509112615 | 10 | 4 | 0.0 | 0.0 | 0.00 | 0.00 | 0.00 | 88 | 1006.7 |
| 20260509112112 | 10 | 5 | 0.0 | 0.0 | 0.00 | 0.00 | 0.00 | 87 | 1006.4 |
| 20260509111609 | 10 | 4 | 0.0 | 0.0 | 0.00 | 0.00 | 0.00 | 88 | 1006.7 |
| 20260509111106 | 10 | 5 | 0.0 | 0.0 | 0.00 | 0.00 | 0.00 | 87 | 1006.8 |
| 20260509110603 | 10 | 4 | 0.0 | 0.0 | 0.00 | 0.00 | 0.00 | 89 | 1006.6 |
| 20260509110100 | 10 | 0 | 0.0 | 0.0 | 0.00 | 0.00 | 0.00 | 88 | 1006.4 |
| 20260509105558 | 10 | 4 | 0.0 | 0.0 | 0.00 | 0.00 | 0.00 | 87 | 1006.5 |
| 20260509105055 | 10 | 359 | 0.0 | 0.0 | 0.00 | 0.00 | 0.00 | 87 | 1006.6 |
| 20260509104552 | 10 | 352 | 0.0 | 0.0 | 0.00 | 0.00 | 0.00 | 89 | 1006.4 |
| 20260509104049 | 10 | 344 | 0.0 | 0.0 | 0.00 | 0.00 | 0.00 | 89 | 1006.5 |
| 20260509103547 | 10 | 11 | 0.0 | 0.0 | 0.00 | 0.00 | 0.00 | 88 | 1006.3 |
| 20260509103045 | 10 | 11 | 0.0 | 0.0 | 0.00 | 0.00 | 0.00 | 88 | 1006.3 |
| 20260509102542 | 10 | 11 | 0.0 | 0.0 | 0.00 | 0.00 | 0.00 | 88 | 1006.3 |
| 20260509102039 | 10 | 12 | 0.0 | 0.0 | 0.00 | 0.00 | 0.00 | 86 | 1006.1 |
| 20260509101535 | 10 | 12 | 0.0 | 0.0 | 0.00 | 0.00 | 0.00 | 86 | 1006.0 |
| 20260509101032 | 10 | 13 | 0.0 | 1.6 | 0.00 | 0.00 | 0.00 | 85 | 1006.0 |
| 20260509100529 | 10 | 12 | 0.0 | 0.0 | 0.00 | 0.00 | 0.00 | 85 | 1006.2 |
| 20260509100027 | 10 | 1 | 0.0 | 0.0 | 0.00 | 0.00 | 0.00 | 85 | 1006.0 |
| 20260509095523 | 10 | 1 | 0.0 | 0.0 | 0.00 | 0.00 | 0.00 | 86 | 1005.9 |
| 20260509095021 | 10 | 2 | 0.0 | 0.0 | 0.00 | 0.00 | 0.00 | 85 | 1005.8 |
| 20260509094516 | 10 | 359 | 0.0 | 1.6 | 0.00 | 0.00 | 0.00 | 90 | 1005.9 |
| 20260509094014 | 10 | 0 | 0.0 | 0.0 | 0.00 | 0.00 | 0.00 | 90 | 1005.8 |
| 20260509093512 | 10 | 4 | 0.0 | 0.0 | 0.00 | 0.00 | 0.00 | 90 | 1005.7 |
| 20260509093010 | 10 | 4 | 0.0 | 0.0 | 0.00 | 0.00 | 0.00 | 91 | 1005.8 |
| 20260509092507 | 10 | 3 | 0.0 | 0.0 | 0.00 | 0.00 | 0.00 | 91 | 1005.6 |
| 20260509092006 | 10 | 4 | 0.0 | 0.0 | 0.00 | 0.00 | 0.00 | 91 | 1005.8 |
| 20260509091503 | 10 | 4 | 0.0 | 0.0 | 0.00 | 0.00 | 0.00 | 91 | 1006.0 |
| 20260509090959 | 10 | 4 | 0.0 | 0.0 | 0.00 | 0.00 | 0.00 | 91 | 1005.8 |
| 20260509090456 | 10 | 4 | 0.0 | 0.0 | 0.00 | 0.00 | 0.00 | 92 | 1005.9 |
| 20260509085954 | 10 | 4 | 0.0 | 0.0 | 0.00 | 0.00 | 0.00 | 92 | 1005.9 |
| 20260509085451 | 10 | 4 | 0.0 | 0.0 | 0.00 | 0.00 | 0.00 | 91 | 1005.9 |
| 20260509084947 | 10 | 4 | 0.0 | 0.0 | 0.00 | 0.00 | 0.00 | 93 | 1006.1 |
| 20260509084444 | 10 | 4 | 0.0 | 0.0 | 0.00 | 0.00 | 0.00 | 92 | 1005.8 |
| 20260509083941 | 10 | 4 | 0.0 | 0.0 | 0.00 | 0.00 | 0.00 | 91 | 1005.7 |
| 20260509083439 | 9 | 4 | 0.0 | 0.0 | 0.00 | 0.00 | 0.00 | 90 | 1005.8 |
| 20260509082935 | 9 | 4 | 0.0 | 0.0 | 0.00 | 0.00 | 0.00 | 92 | 1006.0 |
| 20260509082432 | 9 | 4 | 0.0 | 0.0 | 0.00 | 0.00 | 0.00 | 92 | 1006.0 |
| 20260509081929 | 9 | 4 | 0.0 | 0.0 | 0.00 | 0.00 | 0.00 | 92 | 1005.9 |
| 20260509081427 | 9 | 4 | 0.0 | 0.0 | 0.00 | 0.00 | 0.00 | 92 | 1006.0 |
| 20260509080924 | 9 | 4 | 0.0 | 0.0 | 0.00 | 0.00 | 0.00 | 92 | 1006.1 |
| 20260509080422 | 9 | 4 | 0.0 | 0.0 | 0.00 | 0.00 | 0.00 | 91 | 1005.9 |
| 20260509075920 | 9 | 4 | 0.0 | 0.0 | 0.00 | 0.00 | 0.00 | 91 | 1006.2 |
| 20260509075416 | 8 | 4 | 0.0 | 0.0 | 0.00 | 0.00 | 0.00 | 91 | 1006.0 |
| 20260509074914 | 8 | 4 | 0.0 | 0.0 | 0.00 | 0.00 | 0.00 | 91 | 1006.3 |
| 20260509074412 | 8 | 4 | 0.0 | 0.0 | 0.00 | 0.00 | 0.00 | 91 | 1006.3 |
| 20260509073908 | 8 | 4 | 0.0 | 0.0 | 0.00 | 0.00 | 0.00 | 92 | 1006.2 |
| 20260509073404 | 8 | 4 | 0.0 | 0.0 | 0.00 | 0.00 | 0.00 | 92 | 1006.3 |
| 20260509072901 | 8 | 4 | 0.0 | 0.0 | 0.00 | 0.00 | 0.00 | 92 | 1006.2 |
| 20260509072357 | 8 | 4 | 0.0 | 0.0 | 0.00 | 0.00 | 0.00 | 93 | 1006.2 |
| 20260509071854 | 8 | 4 | 0.0 | 0.0 | 0.00 | 0.00 | 0.00 | 92 | 1006.3 |
| 20260509071351 | 8 | 4 | 0.0 | 0.0 | 0.00 | 0.00 | 0.00 | 92 | 1006.4 |
| 20260509070848 | 8 | 4 | 0.0 | 0.0 | 0.00 | 0.00 | 0.00 | 92 | 1006.5 |
| 20260509070345 | 8 | 3 | 0.0 | 0.0 | 0.00 | 0.00 | 0.00 | 92 | 1006.4 |
| 20260509065841 | 8 | 3 | 0.0 | 0.0 | 0.00 | 0.00 | 0.00 | 93 | 1006.4 |
| 20260509065337 | 7 | 3 | 0.0 | 0.0 | 0.00 | 0.00 | 0.00 | 93 | 1006.5 |
| 20260509064833 | 7 | 3 | 0.0 | 0.0 | 0.00 | 0.00 | 0.00 | 93 | 1006.3 |
| 20260509064331 | 7 | 3 | 0.0 | 0.0 | 0.00 | 0.00 | 0.00 | 93 | 1006.6 |
| 20260509063829 | 7 | 3 | 0.0 | 0.0 | 0.00 | 0.00 | 0.00 | 93 | 1006.5 |
| 20260509063324 | 8 | 3 | 0.0 | 0.0 | 0.00 | 0.00 | 0.00 | 93 | 1006.4 |
| 20260509062822 | 7 | 3 | 0.0 | 0.0 | 0.00 | 0.00 | 0.00 | 93 | 1006.6 |
| 20260509062319 | 7 | 3 | 0.0 | 0.0 | 0.00 | 0.00 | 0.00 | 93 | 1006.5 |
| 20260509061816 | 7 | 3 | 0.0 | 0.0 | 0.00 | 0.00 | 0.00 | 92 | 1006.7 |
| 20260509061314 | 7 | 3 | 0.0 | 0.0 | 0.00 | 0.00 | 0.00 | 92 | 1006.9 |
| 20260509060811 | 7 | 3 | 0.0 | 0.0 | 0.00 | 0.00 | 0.00 | 92 | 1006.8 |
| 20260509060308 | 8 | 4 | 0.0 | 0.0 | 0.00 | 0.00 | 0.00 | 91 | 1006.8 |
| 20260509055803 | 8 | 4 | 0.0 | 0.0 | 0.00 | 0.00 | 0.00 | 91 | 1006.9 |
| 20260509055259 | 8 | 4 | 0.0 | 0.0 | 0.00 | 0.00 | 0.00 | 91 | 1006.9 |
| 20260509054756 | 8 | 4 | 0.0 | 0.0 | 0.00 | 0.00 | 0.00 | 90 | 1007.0 |
| 20260509054252 | 8 | 4 | 0.0 | 0.0 | 0.00 | 0.00 | 0.00 | 90 | 1007.0 |
| 20260509053751 | 8 | 4 | 0.0 | 0.0 | 0.00 | 0.00 | 0.00 | 90 | 1007.0 |
| 20260509053248 | 8 | 4 | 0.0 | 0.0 | 0.00 | 0.00 | 0.00 | 89 | 1007.0 |
| 20260509052746 | 8 | 4 | 0.0 | 0.0 | 0.00 | 0.00 | 0.00 | 88 | 1007.1 |
| 20260509052243 | 8 | 2 | 0.0 | 0.0 | 0.00 | 0.00 | 0.00 | 90 | 1007.1 |
| 20260509051741 | 8 | 4 | 0.0 | 0.0 | 0.00 | 0.00 | 0.00 | 88 | 1007.0 |
| 20260509051239 | 8 | 2 | 0.0 | 0.0 | 0.00 | 0.00 | 0.00 | 89 | 1007.2 |
| 20260509050735 | 8 | 3 | 0.0 | 0.0 | 0.00 | 0.00 | 0.00 | 90 | 1007.1 |
| 20260509050231 | 8 | 4 | 0.0 | 0.0 | 0.00 | 0.00 | 0.00 | 89 | 1007.1 |
| 20260509045729 | 8 | 4 | 0.0 | 0.0 | 0.00 | 0.00 | 0.00 | 89 | 1007.0 |
| 20260509045226 | 8 | 359 | 0.0 | 0.0 | 0.00 | 0.00 | 0.00 | 89 | 1007.0 |
| 20260509044723 | 8 | 358 | 0.0 | 0.0 | 0.00 | 0.00 | 0.00 | 89 | 1006.9 |
| 20260509044221 | 8 | 359 | 0.0 | 0.0 | 0.00 | 0.00 | 0.00 | 90 | 1006.8 |
| 20260509043717 | 8 | 359 | 0.0 | 0.0 | 0.00 | 0.00 | 0.00 | 89 | 1006.8 |
| 20260509043213 | 8 | 359 | 0.0 | 0.0 | 0.00 | 0.00 | 0.00 | 90 | 1007.0 |
| 20260509042709 | 8 | 359 | 0.0 | 0.0 | 0.00 | 0.00 | 0.00 | 90 | 1007.1 |
| 20260509042205 | 8 | 359 | 0.0 | 0.0 | 0.00 | 0.00 | 0.00 | 91 | 1007.0 |
| 20260509041702 | 8 | 359 | 0.0 | 0.0 | 0.00 | 0.00 | 0.00 | 91 | 1007.1 |
| 20260509041200 | 8 | 359 | 0.0 | 0.0 | 0.00 | 0.00 | 0.00 | 90 | 1007.1 |
| 20260509040658 | 8 | 359 | 0.0 | 0.0 | 0.00 | 0.00 | 0.00 | 90 | 1007.2 |
| 20260509040154 | 8 | 359 | 0.0 | 0.0 | 0.00 | 0.00 | 0.00 | 89 | 1007.1 |
| 20260509035651 | 8 | 359 | 0.0 | 0.0 | 0.00 | 0.00 | 0.00 | 90 | 1007.1 |
| 20260509035148 | 8 | 359 | 0.0 | 0.0 | 0.00 | 0.00 | 0.00 | 89 | 1007.0 |
| 20260509034645 | 8 | 359 | 0.0 | 0.0 | 0.00 | 0.00 | 0.00 | 88 | 1007.4 |
| 20260509034142 | 8 | 359 | 0.0 | 0.0 | 0.00 | 0.00 | 0.00 | 86 | 1007.3 |
| 20260509033639 | 9 | 356 | 0.0 | 0.0 | 0.00 | 0.00 | 0.00 | 87 | 1007.1 |
| 20260509033136 | 9 | 9 | 0.0 | 0.0 | 0.00 | 0.00 | 0.00 | 84 | 1007.1 |
| 20260509032634 | 10 | 2 | 0.0 | 0.0 | 0.00 | 0.00 | 0.00 | 84 | 1007.2 |
| 20260509032130 | 10 | 3 | 0.0 | 0.0 | 0.00 | 0.00 | 0.00 | 84 | 1007.3 |
| 20260509031628 | 10 | 311 | 1.6 | 1.6 | 0.00 | 0.00 | 0.00 | 83 | 1007.2 |
| 20260509031125 | 10 | 14 | 0.0 | 1.6 | 0.00 | 0.00 | 0.00 | 84 | 1007.2 |
| 20260509030624 | 10 | 347 | 0.0 | 0.0 | 0.00 | 0.00 | 0.00 | 82 | 1007.2 |
| 20260509030121 | 11 | 359 | 0.0 | 0.0 | 0.00 | 0.00 | 0.00 | 83 | 1007.1 |
| 20260509025616 | 11 | 355 | 0.0 | 0.0 | 0.00 | 0.00 | 0.00 | 81 | 1007.3 |
| 20260509025112 | 11 | 12 | 0.0 | 0.0 | 0.00 | 0.00 | 0.00 | 83 | 1007.2 |
| 20260509024608 | 11 | 340 | 1.6 | 1.6 | 0.00 | 0.00 | 0.00 | 84 | 1007.3 |
| 20260509024104 | 11 | 12 | 0.0 | 0.0 | 0.00 | 0.00 | 0.00 | 83 | 1007.4 |
| 20260509023602 | 11 | 12 | 0.0 | 0.0 | 0.00 | 0.00 | 0.00 | 84 | 1007.5 |
| 20260509023059 | 11 | 12 | 0.0 | 0.0 | 0.00 | 0.00 | 0.00 | 85 | 1007.8 |
| 20260509022555 | 11 | 14 | 0.0 | 0.0 | 0.00 | 0.00 | 0.00 | 84 | 1007.5 |
| 20260509022053 | 10 | 4 | 0.0 | 0.0 | 0.00 | 0.00 | 0.00 | 84 | 1007.9 |
| 20260509021550 | 10 | 4 | 0.0 | 0.0 | 0.00 | 0.00 | 0.00 | 85 | 1007.4 |
| 20260509021047 | 10 | 4 | 0.0 | 0.0 | 0.00 | 0.00 | 0.00 | 84 | 1007.4 |
| 20260509020545 | 10 | 4 | 0.0 | 0.0 | 0.00 | 0.00 | 0.00 | 84 | 1007.4 |
| 20260509020041 | 10 | 4 | 0.0 | 0.0 | 0.00 | 0.00 | 0.00 | 84 | 1007.6 |
| 20260509015541 | 10 | 4 | 0.0 | 0.0 | 0.00 | 0.00 | 0.00 | 84 | 1007.6 |
| 20260509015038 | 10 | 2 | 0.0 | 0.0 | 0.00 | 0.00 | 0.00 | 84 | 1007.5 |
| 20260509014534 | 10 | 3 | 0.0 | 0.0 | 0.00 | 0.00 | 0.00 | 85 | 1007.4 |
| 20260509014030 | 10 | 3 | 0.0 | 0.0 | 0.00 | 0.00 | 0.00 | 82 | 1007.5 |
| 20260509013528 | 10 | 3 | 0.0 | 0.0 | 0.00 | 0.00 | 0.00 | 84 | 1007.2 |
| 20260509013023 | 10 | 2 | 0.0 | 0.0 | 0.00 | 0.00 | 0.00 | 84 | 1007.5 |
| 20260509012520 | 10 | 3 | 0.0 | 0.0 | 0.00 | 0.00 | 0.00 | 85 | 1007.3 |
| 20260509012017 | 10 | 3 | 0.0 | 0.0 | 0.00 | 0.00 | 0.00 | 84 | 1007.2 |
| 20260509011515 | 10 | 3 | 0.0 | 0.0 | 0.00 | 0.00 | 0.00 | 82 | 1007.2 |
| 20260509011012 | 10 | 3 | 0.0 | 0.0 | 0.00 | 0.00 | 0.00 | 81 | 1007.2 |
| 20260509010510 | 10 | 4 | 0.0 | 0.0 | 0.00 | 0.00 | 0.00 | 79 | 1007.3 |
| 20260509010006 | 10 | 3 | 0.0 | 0.0 | 0.00 | 0.00 | 0.00 | 81 | 1007.5 |
| 20260509005504 | 10 | 2 | 0.0 | 0.0 | 0.00 | 0.00 | 0.00 | 82 | 1007.4 |
| 20260509005003 | 10 | 2 | 0.0 | 0.0 | 0.00 | 0.00 | 0.00 | 82 | 1007.1 |
| 20260509004500 | 10 | 2 | 0.0 | 0.0 | 0.00 | 0.00 | 0.00 | 82 | 1007.2 |
| 20260509003958 | 10 | 2 | 0.0 | 0.0 | 0.00 | 0.00 | 0.00 | 80 | 1007.1 |
| 20260509003456 | 10 | 2 | 0.0 | 0.0 | 0.00 | 0.00 | 0.00 | 79 | 1007.1 |
| 20260509002953 | 10 | 2 | 0.0 | 0.0 | 0.00 | 0.00 | 0.00 | 81 | 1007.4 |
| 20260509002450 | 11 | 2 | 0.0 | 0.0 | 0.00 | 0.00 | 0.00 | 81 | 1007.3 |
| 20260509001947 | 11 | 2 | 0.0 | 0.0 | 0.00 | 0.00 | 0.00 | 78 | 1007.2 |
| 20260509001443 | 11 | 2 | 0.0 | 0.0 | 0.00 | 0.00 | 0.00 | 78 | 1007.2 |
| 20260509000940 | 12 | 2 | 0.0 | 0.0 | 0.00 | 0.00 | 0.00 | 76 | 1007.0 |
| 20260509000440 | 12 | 5 | 0.0 | 0.0 | 0.00 | 0.00 | 0.00 | 74 | 1007.1 |
| 20260508235934 | 13 | 6 | 0.0 | 0.0 | 0.00 | 0.00 | 0.00 | 72 | 1007.0 |
| 20260508235432 | 13 | 0 | 0.0 | 0.0 | 0.00 | 0.00 | 0.00 | 70 | 1006.8 |
| 20260508234928 | 13 | 352 | 0.0 | 0.0 | 0.00 | 0.00 | 0.00 | 68 | 1006.8 |
| 20260508234426 | 14 | 349 | 0.0 | 0.0 | 0.00 | 0.00 | 0.00 | 65 | 1006.6 |
| 20260508233923 | 15 | 356 | 0.0 | 0.0 | 0.00 | 0.00 | 0.00 | 65 | 1006.7 |
| 20260508233422 | 15 | 5 | 0.0 | 0.0 | 0.00 | 0.00 | 0.00 | 62 | 1006.8 |
| 20260508232919 | 16 | 350 | 0.0 | 0.0 | 0.00 | 0.00 | 0.00 | 60 | 1006.7 |
| 20260508232416 | 16 | 358 | 0.0 | 0.0 | 0.00 | 0.00 | 0.00 | 54 | 1006.5 |
| 20260508231913 | 17 | 354 | 0.0 | 0.0 | 0.00 | 0.00 | 0.00 | 51 | 1006.5 |
| 20260508231410 | 18 | 357 | 0.0 | 0.0 | 0.00 | 0.00 | 0.00 | 51 | 1006.6 |
| 20260508230907 | 18 | 358 | 0.0 | 0.0 | 0.00 | 0.00 | 0.00 | 47 | 1006.7 |
| 20260508230404 | 18 | 358 | 0.0 | 0.0 | 0.00 | 0.00 | 0.00 | 42 | 1006.6 |
| 20260508225901 | 19 | 352 | 0.0 | 0.0 | 0.00 | 0.00 | 0.00 | 41 | 1006.5 |
| 20260508225358 | 19 | 353 | 0.0 | 0.0 | 0.00 | 0.00 | 0.00 | 41 | 1006.7 |
| 20260508224855 | 18 | 317 | 3.2 | 3.2 | 0.00 | 0.00 | 0.00 | 40 | 1006.4 |
| 20260508224353 | 19 | 350 | 0.0 | 1.6 | 0.00 | 0.00 | 0.00 | 38 | 1006.5 |
| 20260508223850 | 19 | 354 | 0.0 | 0.0 | 0.00 | 0.00 | 0.00 | 38 | 1006.6 |
| 20260508223347 | 19 | 2 | 0.0 | 0.0 | 0.00 | 0.00 | 0.00 | 40 | 1006.6 |
| 20260508222844 | 19 | 347 | 1.6 | 1.6 | 0.00 | 0.00 | 0.00 | 41 | 1006.5 |
| 20260508222342 | 20 | 44 | 1.6 | 1.6 | 0.00 | 0.00 | 0.00 | 38 | 1006.7 |
| 20260508221838 | 19 | 350 | 0.0 | 0.0 | 0.00 | 0.00 | 0.00 | 38 | 1006.8 |
| 20260508221334 | 19 | 351 | 0.0 | 0.0 | 0.00 | 0.00 | 0.00 | 40 | 1006.7 |
| 20260508220830 | 19 | 328 | 1.6 | 1.6 | 0.00 | 0.00 | 0.00 | 39 | 1006.6 |
| 20260508220327 | 20 | 0 | 1.6 | 1.6 | 0.00 | 0.00 | 0.00 | 41 | 1006.9 |
| 20260508215823 | 20 | 0 | 0.0 | 0.0 | 0.00 | 0.00 | 0.00 | 37 | 1006.7 |
| 20260508215320 | 19 | 6 | 0.0 | 0.0 | 0.00 | 0.00 | 0.00 | 38 | 1006.5 |
| 20260508214817 | 20 | 347 | 3.2 | 3.2 | 0.00 | 0.00 | 0.00 | 37 | 1006.6 |
| 20260508214314 | 20 | 289 | 4.8 | 4.8 | 0.00 | 0.00 | 0.00 | 38 | 1006.6 |
| 20260508213811 | 19 | 232 | 0.0 | 1.6 | 0.00 | 0.00 | 0.00 | 35 | 1006.8 |
| 20260508213308 | 20 | 292 | 3.2 | 3.2 | 0.00 | 0.00 | 0.00 | 36 | 1006.7 |
| 20260508212804 | 20 | 7 | 3.2 | 3.2 | 0.00 | 0.00 | 0.00 | 35 | 1007.1 |
| 20260508212300 | 20 | 326 | 3.2 | 4.8 | 0.00 | 0.00 | 0.00 | 39 | 1006.9 |
| 20260508211756 | 20 | 331 | 3.2 | 3.2 | 0.00 | 0.00 | 0.00 | 36 | 1006.7 |
| 20260508211252 | 20 | 335 | 3.2 | 3.2 | 0.00 | 0.00 | 0.00 | 35 | 1007.0 |
| 20260508210750 | 18 | 348 | 0.0 | 1.6 | 0.00 | 0.00 | 0.00 | 39 | 1007.0 |
| 20260508210246 | 18 | 324 | 1.6 | 1.6 | 0.00 | 0.00 | 0.00 | 42 | 1007.0 |
| 20260508205743 | 18 | 340 | 6.4 | 9.7 | 0.00 | 0.00 | 0.00 | 38 | 1007.0 |
| 20260508205239 | 19 | 315 | 4.8 | 6.4 | 0.00 | 0.00 | 0.00 | 37 | 1007.0 |
| 20260508204736 | 18 | 304 | 4.8 | 4.8 | 0.00 | 0.00 | 0.00 | 38 | 1007.1 |
| 20260508204233 | 18 | 326 | 3.2 | 3.2 | 0.00 | 0.00 | 0.00 | 40 | 1007.1 |
| 20260508203729 | 18 | 298 | 3.2 | 3.2 | 0.00 | 0.00 | 0.00 | 38 | 1007.1 |
| 20260508203225 | 18 | 37 | 1.6 | 1.6 | 0.00 | 0.00 | 0.00 | 40 | 1007.1 |
| 20260508202716 | 18 | 323 | 0.0 | 1.6 | 0.00 | 0.00 | 0.00 | 40 | 1007.3 |
| 20260508202213 | 18 | 243 | 1.6 | 3.2 | 0.00 | 0.00 | 0.00 | 38 | 1007.4 |
| 20260508201710 | 18 | 255 | 1.6 | 3.2 | 0.00 | 0.00 | 0.00 | 37 | 1007.4 |
| 20260508201207 | 18 | 306 | 3.2 | 3.2 | 0.00 | 0.00 | 0.00 | 41 | 1007.5 |
| 20260508200704 | 18 | 6 | 1.6 | 3.2 | 0.00 | 0.00 | 0.00 | 39 | 1007.4 |
| 20260508200159 | 18 | 284 | 1.6 | 3.2 | 0.00 | 0.00 | 0.00 | 38 | 1007.5 |
| 20260508195656 | 18 | 0 | 0.0 | 1.6 | 0.00 | 0.00 | 0.00 | 36 | 1007.4 |
| 20260508195153 | 18 | 359 | 0.0 | 1.6 | 0.00 | 0.00 | 0.00 | 37 | 1007.8 |
| 20260508194649 | 18 | 274 | 1.6 | 3.2 | 0.00 | 0.00 | 0.00 | 36 | 1007.6 |
| 20260508194146 | 18 | 312 | 6.4 | 9.7 | 0.00 | 0.00 | 0.00 | 38 | 1008.0 |
| 20260508193643 | 18 | 350 | 0.0 | 1.6 | 0.00 | 0.00 | 0.00 | 38 | 1007.8 |
| 20260508193140 | 18 | 357 | 0.0 | 1.6 | 0.00 | 0.00 | 0.00 | 38 | 1007.8 |
| 20260508192636 | 18 | 281 | 1.6 | 3.2 | 0.00 | 0.00 | 0.00 | 37 | 1007.9 |
| 20260508192134 | 18 | 337 | 1.6 | 1.6 | 0.00 | 0.00 | 0.00 | 38 | 1007.9 |
| 20260508191630 | 18 | 348 | 1.6 | 3.2 | 0.00 | 0.00 | 0.00 | 37 | 1008.1 |
| 20260508191127 | 18 | 307 | 3.2 | 3.2 | 0.00 | 0.00 | 0.00 | 36 | 1008.3 |
| 20260508190625 | 18 | 304 | 0.0 | 1.6 | 0.00 | 0.00 | 0.00 | 38 | 1008.1 |
| 20260508190120 | 18 | 326 | 1.6 | 1.6 | 0.00 | 0.00 | 0.00 | 38 | 1008.2 |
| 20260508185617 | 19 | 202 | 4.8 | 6.4 | 0.00 | 0.00 | 0.00 | 36 | 1008.2 |
| 20260508185115 | 18 | 344 | 1.6 | 3.2 | 0.00 | 0.00 | 0.00 | 36 | 1008.1 |
| 20260508184612 | 18 | 339 | 3.2 | 3.2 | 0.00 | 0.00 | 0.00 | 34 | 1008.4 |
| 20260508184109 | 18 | 8 | 4.8 | 6.4 | 0.00 | 0.00 | 0.00 | 35 | 1008.3 |
| 20260508183605 | 18 | 326 | 4.8 | 6.4 | 0.00 | 0.00 | 0.00 | 35 | 1008.4 |
| 20260508183101 | 19 | 317 | 0.0 | 1.6 | 0.00 | 0.00 | 0.00 | 33 | 1008.4 |
| 20260508182558 | 19 | 303 | 6.4 | 6.4 | 0.00 | 0.00 | 0.00 | 32 | 1008.4 |
| 20260508182055 | 18 | 341 | 1.6 | 1.6 | 0.00 | 0.00 | 0.00 | 33 | 1008.5 |
| 20260508181555 | 18 | 15 | 0.0 | 1.6 | 0.00 | 0.00 | 0.00 | 33 | 1008.6 |
| 20260508181053 | 19 | 205 | 6.4 | 9.7 | 0.00 | 0.00 | 0.00 | 34 | 1008.4 |
| 20260508180550 | 20 | 5 | 1.6 | 1.6 | 0.00 | 0.00 | 0.00 | 40 | 1008.9 |
| 20260508180046 | 19 | 280 | 3.2 | 4.8 | 0.00 | 0.00 | 0.00 | 35 | 1008.6 |
| 20260508175543 | 19 | 297 | 4.8 | 4.8 | 0.00 | 0.00 | 0.00 | 37 | 1008.7 |
| 20260508175040 | 19 | 310 | 3.2 | 4.8 | 0.00 | 0.00 | 0.00 | 35 | 1008.8 |
| 20260508174538 | 18 | 353 | 0.0 | 0.0 | 0.00 | 0.00 | 0.00 | 41 | 1009.0 |
| 20260508174034 | 18 | 320 | 4.8 | 4.8 | 0.00 | 0.00 | 0.00 | 35 | 1009.0 |
| 20260508173531 | 18 | 0 | 9.7 | 12.9 | 0.00 | 0.00 | 0.00 | 34 | 1008.9 |
| 20260508173027 | 19 | 335 | 3.2 | 4.8 | 0.00 | 0.00 | 0.00 | 33 | 1009.2 |
| 20260508172524 | 19 | 41 | 0.0 | 1.6 | 0.00 | 0.00 | 0.00 | 36 | 1009.1 |
| 20260508172021 | 18 | 341 | 0.0 | 1.6 | 0.00 | 0.00 | 0.00 | 39 | 1009.0 |